Vorticity
12 3 -5 16 17 4 7 32 -2 0 27 8 18 39 16 17 5 20 15 11 17 2
9 6 -0 19 11 1 25 18 17 23 3 14 19 4 28 12 10 4 17 13 8 14
-1 9 11 17 11 9 17 18 14 10 3 -3 33 16 27 10 19 -12 5 14 -5 9
1 11 10 16 7 9 8 39 38 32 17 13 -3 18 -4 25 17 26 11 22 7 37
14 1 -0 6 21 8 13 34 31 37 29 40 22 16 15 4 1 17 -3 -3 16 27
5 9 9 16 3 12 5 23 16 8 24 34 16 3 -13 25 -6 34 11 -6 3 21
3 10 3 15 3 28 3 16 41 10 6 41 6 30 -10 17 9 10 23 37 11 19
30 20 11 14 26 21 15 11 33 25 18 -25 53 20 -6 9 8 18 7 1 -8 5
-3 16 10 43 12 13 13 15 16 39 41 40 30 31 28 48 22 38 42 17 6 18
23 36 5 18 30 21 13 6 19 1 32 21 -7 32 22 15 32 14 12 13 -8 -3
13 5 8 11 13 20 20 12 17 4 28 14 21 28 19 -2 -1 10 -9 -17 17 8
9 8 4 8 3 25 15 23 15 23 1 9 30 17 -0 6 2 -8 -3 -4 3 25
10 18 8 3 14 7 19 9 8 12 20 16 1 -2 7 8 12 22 7 -11 -2 13
9 12 13 11 3 6 10 -3 17 1 24 24 11 1 7 14 16 40 39 36 35 43
Height
3012 3009 3006 3003 3001 3000 2999 2998 3000 3002 3005 3007 3009 3013 3018 3024 3031 3037 3043 3050 3056 3062
3004 3001 2999 2995 2993 2991 2988 2988 2989 2991 2994 2997 3001 3005 3008 3014 3021 3027 3034 3042 3048 3054
2998 2995 2992 2988 2986 2982 2979 2977 2978 2980 2983 2987 2991 2995 2999 3005 3011 3016 3026 3033 3040 3048
2991 2988 2985 2981 2978 2975 2971 2967 2967 2968 2971 2976 2980 2985 2990 2996 3003 3010 3018 3022 3031 3038
2985 2982 2979 2976 2972 2969 2965 2962 2959 2959 2961 2964 2972 2978 2985 2989 2995 3002 3009 3019 3026 3031
2979 2976 2973 2969 2967 2963 2961 2959 2956 2956 2955 2959 2964 2970 2976 2982 2988 2993 2998 3011 3018 3026
2973 2971 2968 2964 2962 2959 2955 2955 2953 2952 2953 2953 2956 2963 2968 2975 2981 2990 2996 3002 3011 3018
2968 2966 2963 2959 2956 2954 2952 2951 2949 2948 2950 2951 2951 2959 2966 2972 2977 2979 2993 2998 3005 3014
2966 2964 2961 2954 2953 2952 2950 2949 2947 2946 2947 2951 2952 2954 2962 2968 2973 2977 2984 2992 3000 3007
2962 2961 2959 2956 2952 2951 2950 2950 2949 2948 2947 2951 2954 2956 2961 2965 2972 2979 2986 2992 2999 3006
2962 2960 2959 2957 2955 2952 2952 2951 2950 2950 2949 2951 2955 2960 2965 2970 2974 2979 2985 2992 2998 3005
2962 2961 2960 2958 2956 2955 2954 2952 2952 2953 2954 2955 2958 2963 2968 2973 2978 2983 2988 2993 2998 3002
2963 2961 2960 2959 2958 2957 2957 2956 2956 2957 2958 2960 2962 2966 2970 2974 2978 2983 2988 2992 2996 3001
2962 2961 2961 2961 2960 2960 2960 2960 2960 2961 2961 2963 2966 2969 2972 2976 2979 2982 2987 2990 2993 2995